Home   Weather   Haines   Past weeks
Flag for USA

Past Weather in Haines, Alaska, USA — Yesterday and Last 2 Weeks

Now
36 °F

Clear.


Feels Like: 28 °F
Forecast: 42 / 33 °F
Wind: 13 mph from Northwest

Location: Haines Airport

Current Time: Oct 14, 2019 at 12:03:51 am

Latest Report: Oct 13, 2019 at 10:54 pm


Visibility: 10 mi

Pressure: 30.06 "Hg

Humidity: 62%

Dew Point: 24 °F

Location of HainesLocation

Past Weather in Haines — Graph

°F

Haines Temperature Yesterday

Maximum temperature yesterday: 47 °F (at 2:54 pm)
Minimum temperature yesterday: 34 °F (at 6:54 am)
Average temperature yesterday: 39 °F

High & Low Weather Summary for the Past Weeks

 TemperatureHumidityPressure
High59 °F (Oct 3, 3:54 pm)97% (Oct 3, 7:54 am)30.42 "Hg (Oct 3, 7:54 am)
Low29 °F (Oct 8, 6:54 am)28% (Oct 7, 1:54 pm)29.43 "Hg (Oct 6, 7:34 am)
Average44 °F79%29.98 "Hg
* Reported Sep 28 10:54 pm — Oct 13 10:54 pm, Haines. Weather by CustomWeather, © 2019

Note: Actual official high and low records may vary slightly from our data, if they occured in-between our weather recording intervals... More about our weather records

Advertising

Haines Weather History for the Previous 24 Hours

Scroll right to see more
 ConditionsComfort  
Time TempWeatherWind HumidityBarometerVisibility
10:54 pm
Sun, Oct 13
36 °FClear.13 mph62%30.06 "Hg10 mi
9:54 pm37 °FClear.10 mph60%30.06 "Hg10 mi
8:54 pm38 °FClear.10 mph63%30.06 "Hg10 mi
7:54 pm34 °FClear.9 mph82%30.06 "Hg10 mi
6:54 pm36 °FClear.No wind79%30.05 "Hg10 mi
5:54 pm41 °FSunny.5 mph58%30.04 "Hg10 mi
4:54 pm43 °FSunny.10 mph49%30.04 "Hg10 mi
3:54 pm46 °FSunny.9 mph44%30.05 "Hg10 mi
2:54 pm47 °FSunny.9 mph44%30.05 "Hg10 mi
1:54 pm46 °FSunny.13 mph46%30.07 "Hg10 mi
12:54 pm44 °FSunny.14 mph49%30.08 "Hg10 mi
11:54 am41 °FSunny.17 mph53%30.09 "Hg10 mi
10:54 am41 °FSunny.14 mph58%30.09 "Hg10 mi
9:54 am37 °FSunny.13 mph70%30.09 "Hg10 mi
8:54 am38 °FSunny.12 mph63%30.09 "Hg10 mi
7:54 am34 °FSunny.12 mph79%30.09 "Hg10 mi
6:54 am34 °FPassing clouds.12 mph82%30.09 "Hg10 mi
5:54 am35 °FPassing clouds.13 mph78%30.09 "Hg10 mi
4:54 am39 °FPassing clouds.13 mph65%30.09 "Hg10 mi
3:54 am38 °FOvercast.12 mph76%30.09 "Hg10 mi
2:54 am39 °FPassing clouds.14 mph73%30.09 "Hg10 mi
1:54 am39 °FPassing clouds.9 mph76%30.08 "Hg10 mi
12:54 am40 °FPassing clouds.12 mph80%30.07 "Hg10 mi
Weather by CustomWeather, © 2019

See weather overview